This is the latest recevied weather packets stored in our database for station/object K7AEL. If no packets are shown the sender has not sent any weather packets the latest 10 day(s).
| Time | Temp. | Humidity | Pressure | Rain* | Wind** | Luminosity | Snow |
|---|---|---|---|---|---|---|---|
| 1777961643 | 15.56° C | 85% | 1015.9 hPa | 0 mm | - | 0 W/m² | - |
| 1777961340 | 15.56° C | 85% | 1015.8 hPa | 0 mm | - | 0 W/m² | - |
| 1777961036 | 15.56° C | 85% | 1016.1 hPa | 0 mm | - | 0 W/m² | - |
| 1777960733 | 15.56° C | 86% | 1015.9 hPa | 1.78 mm | - | 0 W/m² | - |
| 1777960429 | 15.56° C | 85% | 1015.8 hPa | 1.78 mm | - | 0 W/m² | - |
| 1777960126 | 15.56° C | 85% | 1015.7 hPa | 0 mm | - | 0 W/m² | - |
| 1777959823 | 15.56° C | 84% | 1015.8 hPa | 0 mm | - | 0 W/m² | - |
| 1777959522 | 15.56° C | 84% | 1015.8 hPa | 1.27 mm | - | 0 W/m² | - |
| 1777959218 | 15.56° C | 84% | 1015.6 hPa | 1.27 mm | - | 0 W/m² | - |
| 1777958915 | 15.56° C | 84% | 1015.6 hPa | 0 mm | - | 0 W/m² | - |
| 1777958612 | 15.56° C | 84% | 1015.7 hPa | 0 mm | - | 0 W/m² | - |
| 1777958309 | 15.56° C | 85% | 1015.6 hPa | 0 mm | - | 0 W/m² | - |
| 1777958006 | 15° C | 85% | 1015.5 hPa | 0 mm | - | 0 W/m² | - |
| 1777957704 | 15° C | 85% | 1015.5 hPa | 1.78 mm | - | 0 W/m² | - |
| 1777957403 | 15° C | 85% | 1015.4 hPa | 1.78 mm | - | 0 W/m² | - |
| 1777957098 | 15° C | 85% | 1015.6 hPa | 0 mm | - | 0 W/m² | - |
| 1777956796 | 15° C | 85% | 1015.5 hPa | 0 mm | - | 0 W/m² | - |
| 1777956493 | 15° C | 85% | 1015.6 hPa | 0 mm | - | 0 W/m² | - |
| 1777956189 | 15° C | 85% | 1015.4 hPa | 0 mm | - | 0 W/m² | - |
| 1777955885 | 14.44° C | 85% | 1015.4 hPa | 0 mm | - | 0 W/m² | - |
| 1777955582 | 14.44° C | 85% | 1015.6 hPa | 0 mm | - | 0 W/m² | - |
| 1777955278 | 14.44° C | 84% | 1015.5 hPa | 1.27 mm | - | 0 W/m² | - |
| 1777954976 | 14.44° C | 83% | 1015.8 hPa | 1.27 mm | - | 0 W/m² | - |
| 1777954672 | 14.44° C | 82% | 1015.9 hPa | 1.78 mm | - | 0 W/m² | - |
| 1777954369 | 14.44° C | 82% | 1015.9 hPa | 1.78 mm | - | 0 W/m² | - |
* Rain latest hour (hover to see other rain measurements)
** Current wind speed in m/s (hover to see current wind gust speed)